Location: Eymir
(36.7333°N, 29.7833°E)
Time: 17:55:20
(UTC+00:00)

CZ-2D R/B - Pass Details

Date: 14 January 2026
Orbit: 387 x 398 km, 97.4° (Epoch: 17 February)

Event Time Altitude Azimuth Distance (km) Brightness Sun altitude
Rises 04:38:56 0° 9° (N) 2,327 6.4 -7.1°
Reaches altitude 10° 04:40:56 10° 7° (N) 1,458 5.3 -6.7°
Maximum altitude 04:44:01 72° 284° (WNW) 423 2.6 -6.1°
Drops below altitude 10° 04:47:04 10° 199° (SSW) 1,432 5.5 -5.5°
Sets 04:49:01 0° 197° (SSW) 2,279 6.6 -5.2°
